Year,Month,Day,Hour,Minute,Value (Times are PST for temperature in C)
2014,07,26,00,00,14.50
2014,07,26,00,01,14.50
2014,07,26,00,02,14.50
2014,07,26,00,03,14.50
2014,07,26,00,04,14.50
2014,07,26,00,05,14.50
2014,07,26,00,06,14.50
2014,07,26,00,07,14.40
2014,07,26,00,08,14.40
2014,07,26,00,09,14.40
2014,07,26,00,10,14.40
2014,07,26,00,11,14.40
2014,07,26,00,12,14.40
2014,07,26,00,13,14.40
2014,07,26,00,14,14.40
2014,07,26,00,15,14.40
2014,07,26,00,16,14.40
2014,07,26,00,17,14.40
2014,07,26,00,18,14.30
2014,07,26,00,19,14.30
2014,07,26,00,20,14.30
2014,07,26,00,21,14.30
2014,07,26,00,22,14.20
2014,07,26,00,23,14.20
2014,07,26,00,24,14.20
2014,07,26,00,25,14.20
2014,07,26,00,26,14.20
2014,07,26,00,27,14.20
2014,07,26,00,28,14.20
2014,07,26,00,29,14.20
2014,07,26,00,30,14.20
2014,07,26,00,31,14.20
2014,07,26,00,32,14.20
2014,07,26,00,33,14.20
2014,07,26,00,34,14.20
2014,07,26,00,35,14.10
2014,07,26,00,36,14.10
2014,07,26,00,37,14.10
2014,07,26,00,38,14.10
2014,07,26,00,39,14.10
2014,07,26,00,40,14.10
2014,07,26,00,41,14.10
2014,07,26,00,42,14.10
2014,07,26,00,43,14.10
2014,07,26,00,44,14.10
2014,07,26,00,45,14.10
2014,07,26,00,46,14.10
2014,07,26,00,47,14.10
2014,07,26,00,48,14.10
2014,07,26,00,49,14.10
2014,07,26,00,50,14.10
2014,07,26,00,51,14.00
2014,07,26,00,52,14.00
2014,07,26,00,53,14.00
2014,07,26,00,54,14.00
2014,07,26,00,55,14.00
2014,07,26,00,56,14.00
2014,07,26,00,57,14.00
2014,07,26,00,58,14.00
2014,07,26,00,59,14.00
2014,07,26,01,00,14.10
2014,07,26,01,01,14.10
2014,07,26,01,02,14.10
2014,07,26,01,03,14.10
2014,07,26,01,04,14.10
2014,07,26,01,05,14.10
2014,07,26,01,06,14.10
2014,07,26,01,07,14.00
2014,07,26,01,08,14.00
2014,07,26,01,09,14.00
2014,07,26,01,10,14.00
2014,07,26,01,11,14.00
2014,07,26,01,12,14.00
2014,07,26,01,13,14.00
2014,07,26,01,14,14.00
2014,07,26,01,15,14.00
2014,07,26,01,16,14.00
2014,07,26,01,17,13.90
2014,07,26,01,18,13.90
2014,07,26,01,19,13.90
2014,07,26,01,20,13.90
2014,07,26,01,21,13.90
2014,07,26,01,22,13.90
2014,07,26,01,23,13.90
2014,07,26,01,24,13.90
2014,07,26,01,25,13.80
2014,07,26,01,26,13.80
2014,07,26,01,27,13.80
2014,07,26,01,28,13.80
2014,07,26,01,29,13.80
2014,07,26,01,30,13.80
2014,07,26,01,31,13.80
2014,07,26,01,32,13.80
2014,07,26,01,33,13.70
2014,07,26,01,34,13.70
2014,07,26,01,35,13.70
2014,07,26,01,36,13.70
2014,07,26,01,37,13.70
2014,07,26,01,38,13.70
2014,07,26,01,39,13.70
2014,07,26,01,40,13.70
2014,07,26,01,41,13.60
2014,07,26,01,42,13.60
2014,07,26,01,43,13.60
2014,07,26,01,44,13.60
2014,07,26,01,45,13.60
2014,07,26,01,46,13.50
2014,07,26,01,47,13.50
2014,07,26,01,48,13.50
2014,07,26,01,49,13.40
2014,07,26,01,50,13.40
2014,07,26,01,51,13.40
2014,07,26,01,52,13.30
2014,07,26,01,53,13.30
2014,07,26,01,54,13.30
2014,07,26,01,55,13.30
2014,07,26,01,56,13.30
2014,07,26,01,57,13.20
2014,07,26,01,58,13.20
2014,07,26,01,59,13.20
2014,07,26,02,00,13.10
2014,07,26,02,01,13.10
2014,07,26,02,02,13.10
2014,07,26,02,03,13.00
2014,07,26,02,04,13.00
2014,07,26,02,05,13.00
2014,07,26,02,06,12.90
2014,07,26,02,07,12.90
2014,07,26,02,08,12.90
2014,07,26,02,09,12.90
2014,07,26,02,10,12.80
2014,07,26,02,11,12.80
2014,07,26,02,12,12.80
2014,07,26,02,13,12.80
2014,07,26,02,14,12.80
2014,07,26,02,15,12.80
2014,07,26,02,16,12.80
2014,07,26,02,17,12.80
2014,07,26,02,18,12.80
2014,07,26,02,19,12.80
2014,07,26,02,20,12.80
2014,07,26,02,21,12.70
2014,07,26,02,22,12.70
2014,07,26,02,23,12.70
2014,07,26,02,24,12.70
2014,07,26,02,25,12.70
2014,07,26,02,26,12.70
2014,07,26,02,27,12.60
2014,07,26,02,28,12.60
2014,07,26,02,29,12.60
2014,07,26,02,30,12.60
2014,07,26,02,31,12.60
2014,07,26,02,32,12.60
2014,07,26,02,33,12.60
2014,07,26,02,34,12.50
2014,07,26,02,35,12.50
2014,07,26,02,36,12.50
2014,07,26,02,37,12.50
2014,07,26,02,38,12.50
2014,07,26,02,39,12.50
2014,07,26,02,40,12.50
2014,07,26,02,41,12.50
2014,07,26,02,42,12.50
2014,07,26,02,43,12.40
2014,07,26,02,44,12.40
2014,07,26,02,45,12.40
2014,07,26,02,46,12.40
2014,07,26,02,47,12.30
2014,07,26,02,48,12.30
2014,07,26,02,49,12.30
2014,07,26,02,50,12.30
2014,07,26,02,51,12.30
2014,07,26,02,52,12.30
2014,07,26,02,53,12.30
2014,07,26,02,54,12.30
2014,07,26,02,55,12.30
2014,07,26,02,56,12.30
2014,07,26,02,57,12.30
2014,07,26,02,58,12.30
2014,07,26,02,59,12.30
2014,07,26,03,00,12.30
2014,07,26,03,01,12.30
2014,07,26,03,02,12.30
2014,07,26,03,03,12.30
2014,07,26,03,04,12.30
2014,07,26,03,05,12.30
2014,07,26,03,06,12.30
2014,07,26,03,07,12.30
2014,07,26,03,08,12.20
2014,07,26,03,09,12.20
2014,07,26,03,10,12.20
2014,07,26,03,11,12.20
2014,07,26,03,12,12.20
2014,07,26,03,13,12.20
2014,07,26,03,14,12.20
2014,07,26,03,15,12.20
2014,07,26,03,16,12.20
2014,07,26,03,17,12.10
2014,07,26,03,18,12.10
2014,07,26,03,19,12.10
2014,07,26,03,20,12.10
2014,07,26,03,21,12.10
2014,07,26,03,22,12.10
2014,07,26,03,23,12.00
2014,07,26,03,24,12.00
2014,07,26,03,25,12.00
2014,07,26,03,26,12.00
2014,07,26,03,27,12.00
2014,07,26,03,28,12.00
2014,07,26,03,29,12.00
2014,07,26,03,30,12.00
2014,07,26,03,31,12.00
2014,07,26,03,32,12.00
2014,07,26,03,33,11.90
2014,07,26,03,34,11.90
2014,07,26,03,35,11.90
2014,07,26,03,36,11.90
2014,07,26,03,37,11.90
2014,07,26,03,38,11.90
2014,07,26,03,39,11.90
2014,07,26,03,40,11.90
2014,07,26,03,41,11.80
2014,07,26,03,42,11.80
2014,07,26,03,43,11.80
2014,07,26,03,44,11.80
2014,07,26,03,45,11.80
2014,07,26,03,46,11.80
2014,07,26,03,47,11.80
2014,07,26,03,48,11.80
2014,07,26,03,49,11.80
2014,07,26,03,50,11.70
2014,07,26,03,51,11.70
2014,07,26,03,52,11.70
2014,07,26,03,53,11.70
2014,07,26,03,54,11.70
2014,07,26,03,55,11.60
2014,07,26,03,56,11.60
2014,07,26,03,57,11.60
2014,07,26,03,58,11.60
2014,07,26,03,59,11.70
2014,07,26,04,00,11.70
2014,07,26,04,01,11.70
2014,07,26,04,02,11.70
2014,07,26,04,03,11.60
2014,07,26,04,04,11.60
2014,07,26,04,05,11.60
2014,07,26,04,06,11.60
2014,07,26,04,07,11.60
2014,07,26,04,08,11.60
2014,07,26,04,09,11.60
2014,07,26,04,10,11.60
2014,07,26,04,11,11.60
2014,07,26,04,12,11.60
2014,07,26,04,13,11.60
2014,07,26,04,14,11.60
2014,07,26,04,15,11.60
2014,07,26,04,16,11.60
2014,07,26,04,17,11.60
2014,07,26,04,18,11.60
2014,07,26,04,19,11.60
2014,07,26,04,20,11.60
2014,07,26,04,21,11.60
2014,07,26,04,22,11.60
2014,07,26,04,23,11.60
2014,07,26,04,24,11.60
2014,07,26,04,25,11.60
2014,07,26,04,26,11.60
2014,07,26,04,27,11.60
2014,07,26,04,28,11.60
2014,07,26,04,29,11.60
2014,07,26,04,30,11.50
2014,07,26,04,31,11.40
2014,07,26,04,32,11.40
2014,07,26,04,33,11.40
2014,07,26,04,34,11.40
2014,07,26,04,35,11.40
2014,07,26,04,36,11.40
2014,07,26,04,37,11.40
2014,07,26,04,38,11.40
2014,07,26,04,39,11.40
2014,07,26,04,40,11.40
2014,07,26,04,41,11.40
2014,07,26,04,42,11.40
2014,07,26,04,43,11.40
2014,07,26,04,44,11.40
2014,07,26,04,45,11.40
2014,07,26,04,46,11.40
2014,07,26,04,47,11.40
2014,07,26,04,48,11.40
2014,07,26,04,49,11.40
2014,07,26,04,50,11.40
2014,07,26,04,51,11.40
2014,07,26,04,52,11.40
2014,07,26,04,53,11.30
2014,07,26,04,54,11.30
2014,07,26,04,55,11.30
2014,07,26,04,56,11.30
2014,07,26,04,57,11.30
2014,07,26,04,58,11.30
2014,07,26,04,59,11.30
2014,07,26,05,00,11.30
2014,07,26,05,01,11.30
2014,07,26,05,02,11.30
2014,07,26,05,03,11.30
2014,07,26,05,04,11.30
2014,07,26,05,05,11.30
2014,07,26,05,06,11.30
2014,07,26,05,07,11.30
2014,07,26,05,08,11.30
2014,07,26,05,09,11.30
2014,07,26,05,10,11.30
2014,07,26,05,11,11.30
2014,07,26,05,12,11.30
2014,07,26,05,13,11.20
2014,07,26,05,14,11.20
2014,07,26,05,15,11.20
2014,07,26,05,16,11.20
2014,07,26,05,17,11.20
2014,07,26,05,18,11.20
2014,07,26,05,19,11.20
2014,07,26,05,20,11.20
2014,07,26,05,21,11.20
2014,07,26,05,22,11.10
2014,07,26,05,23,11.10
2014,07,26,05,24,11.10
2014,07,26,05,25,11.10
2014,07,26,05,26,11.10
2014,07,26,05,27,11.10
2014,07,26,05,28,11.10
2014,07,26,05,29,11.10
2014,07,26,05,30,11.10
2014,07,26,05,31,11.10
2014,07,26,05,32,11.10
2014,07,26,05,33,11.10
2014,07,26,05,34,11.10
2014,07,26,05,35,11.10
2014,07,26,05,36,11.10
2014,07,26,05,37,11.10
2014,07,26,05,38,11.10
2014,07,26,05,39,11.10
2014,07,26,05,40,11.10
2014,07,26,05,41,11.10
2014,07,26,05,42,11.10
2014,07,26,05,43,11.10
2014,07,26,05,44,11.10
2014,07,26,05,45,11.10
2014,07,26,05,46,11.10
2014,07,26,05,47,11.10
2014,07,26,05,48,11.00
2014,07,26,05,49,10.90
2014,07,26,05,50,10.90
2014,07,26,05,51,10.90
2014,07,26,05,52,10.90
2014,07,26,05,53,10.90
2014,07,26,05,54,10.90
2014,07,26,05,55,11.10
2014,07,26,05,56,11.10
2014,07,26,05,57,11.10
2014,07,26,05,58,11.10
2014,07,26,05,59,11.10
2014,07,26,06,00,11.10
2014,07,26,06,01,11.10
2014,07,26,06,02,11.10
2014,07,26,06,03,11.10
2014,07,26,06,04,11.10
2014,07,26,06,05,11.10
2014,07,26,06,06,11.10
2014,07,26,06,07,11.10
2014,07,26,06,08,11.10
2014,07,26,06,09,11.10
2014,07,26,06,10,11.10
2014,07,26,06,11,11.20
2014,07,26,06,12,11.20
2014,07,26,06,13,11.20
2014,07,26,06,14,11.20
2014,07,26,06,15,11.20
2014,07,26,06,16,11.20
2014,07,26,06,17,11.20
2014,07,26,06,18,11.20
2014,07,26,06,19,11.20
2014,07,26,06,20,11.20
2014,07,26,06,21,11.20
2014,07,26,06,22,11.30
2014,07,26,06,23,11.30
2014,07,26,06,24,11.30
2014,07,26,06,25,11.30
2014,07,26,06,26,11.40
2014,07,26,06,27,11.40
2014,07,26,06,28,11.40
2014,07,26,06,29,11.40
2014,07,26,06,30,11.40
2014,07,26,06,31,11.40
2014,07,26,06,32,11.40
2014,07,26,06,33,11.40
2014,07,26,06,34,11.40
2014,07,26,06,35,11.40
2014,07,26,06,36,11.40
2014,07,26,06,37,11.50
2014,07,26,06,38,11.60
2014,07,26,06,39,11.60
2014,07,26,06,40,11.60
2014,07,26,06,41,11.60
2014,07,26,06,42,11.60
2014,07,26,06,43,11.70
2014,07,26,06,44,11.70
2014,07,26,06,45,11.80
2014,07,26,06,46,11.80
2014,07,26,06,47,11.80
2014,07,26,06,48,11.90
2014,07,26,06,49,11.90
2014,07,26,06,50,11.90
2014,07,26,06,51,12.00
2014,07,26,06,52,12.00
2014,07,26,06,53,12.00
2014,07,26,06,54,12.10
2014,07,26,06,55,12.10
2014,07,26,06,56,12.10
2014,07,26,06,57,12.10
2014,07,26,06,58,12.20
2014,07,26,06,59,12.20
2014,07,26,07,00,12.20
2014,07,26,07,01,12.20
2014,07,26,07,02,12.20
2014,07,26,07,03,12.30
2014,07,26,07,04,12.30
2014,07,26,07,05,12.30
2014,07,26,07,06,12.30
2014,07,26,07,07,12.30
2014,07,26,07,08,12.30
2014,07,26,07,09,12.30
2014,07,26,07,10,12.30
2014,07,26,07,11,12.30
2014,07,26,07,12,12.30
2014,07,26,07,13,12.40
2014,07,26,07,14,12.40
2014,07,26,07,15,12.50
2014,07,26,07,16,12.50
2014,07,26,07,17,12.50
2014,07,26,07,18,12.60
2014,07,26,07,19,12.60
2014,07,26,07,20,12.60
2014,07,26,07,21,12.70
2014,07,26,07,22,12.70
2014,07,26,07,23,12.70
2014,07,26,07,24,12.80
2014,07,26,07,25,12.80
2014,07,26,07,26,12.80
2014,07,26,07,27,12.80
2014,07,26,07,28,12.80
2014,07,26,07,29,12.80
2014,07,26,07,30,12.80
2014,07,26,07,31,12.80
2014,07,26,07,32,12.80
2014,07,26,07,33,12.80
2014,07,26,07,34,12.80
2014,07,26,07,35,12.80
2014,07,26,07,36,12.80
2014,07,26,07,37,12.80
2014,07,26,07,38,12.80
2014,07,26,07,39,12.80
2014,07,26,07,40,12.80
2014,07,26,07,41,12.80
2014,07,26,07,42,12.80
2014,07,26,07,43,12.80
2014,07,26,07,44,12.80
2014,07,26,07,45,12.70
2014,07,26,07,46,12.70
2014,07,26,07,47,12.60
2014,07,26,07,48,12.60
2014,07,26,07,49,12.60
2014,07,26,07,50,12.60
2014,07,26,07,51,12.70
2014,07,26,07,52,12.70
2014,07,26,07,53,12.70
2014,07,26,07,54,12.70
2014,07,26,07,55,12.70
2014,07,26,07,56,12.70
2014,07,26,07,57,12.70
2014,07,26,07,58,12.70
2014,07,26,07,59,12.80
2014,07,26,08,00,12.80
2014,07,26,08,01,12.80
2014,07,26,08,02,12.80
2014,07,26,08,03,12.80
2014,07,26,08,04,12.80
2014,07,26,08,05,12.80
2014,07,26,08,06,12.80
2014,07,26,08,07,12.80
2014,07,26,08,08,12.90
2014,07,26,08,09,12.90
2014,07,26,08,10,12.90
2014,07,26,08,11,13.00
2014,07,26,08,12,13.00
2014,07,26,08,13,13.00
2014,07,26,08,14,13.00
2014,07,26,08,15,13.10
2014,07,26,08,16,13.10
2014,07,26,08,17,13.20
2014,07,26,08,18,13.20
2014,07,26,08,19,13.20
2014,07,26,08,20,13.30
2014,07,26,08,21,13.30
2014,07,26,08,22,13.30
2014,07,26,08,23,13.40
2014,07,26,08,24,13.50
2014,07,26,08,25,13.60
2014,07,26,08,26,13.60
2014,07,26,08,27,13.70
2014,07,26,08,28,13.70
2014,07,26,08,29,13.80
2014,07,26,08,30,13.90
2014,07,26,08,31,13.90
2014,07,26,08,32,14.00
2014,07,26,08,33,14.00
2014,07,26,08,34,14.10
2014,07,26,08,35,14.20
2014,07,26,08,36,14.20
2014,07,26,08,37,14.20
2014,07,26,08,38,14.30
2014,07,26,08,39,14.40
2014,07,26,08,40,14.40
2014,07,26,08,41,14.50
2014,07,26,08,42,14.50
2014,07,26,08,43,14.60
2014,07,26,08,44,14.60
2014,07,26,08,45,14.70
2014,07,26,08,46,14.70
2014,07,26,08,47,14.70
2014,07,26,08,48,14.80
2014,07,26,08,49,14.80
2014,07,26,08,50,14.80
2014,07,26,08,51,14.80
2014,07,26,08,52,14.70
2014,07,26,08,53,14.70
2014,07,26,08,54,14.70
2014,07,26,08,55,14.70
2014,07,26,08,56,14.80
2014,07,26,08,57,14.80
2014,07,26,08,58,14.90
2014,07,26,08,59,15.00
2014,07,26,09,00,15.00
2014,07,26,09,01,15.00
2014,07,26,09,02,15.00
2014,07,26,09,03,15.00
2014,07,26,09,04,15.00
2014,07,26,09,05,15.00
2014,07,26,09,06,15.00
2014,07,26,09,07,15.10
2014,07,26,09,08,15.10
2014,07,26,09,09,15.20
2014,07,26,09,10,15.30
2014,07,26,09,11,15.30
2014,07,26,09,12,15.30
2014,07,26,09,13,15.40
2014,07,26,09,14,15.40
2014,07,26,09,15,15.50
2014,07,26,09,16,15.50
2014,07,26,09,17,15.60
2014,07,26,09,18,15.60
2014,07,26,09,19,15.50
2014,07,26,09,20,15.40
2014,07,26,09,21,15.40
2014,07,26,09,22,15.30
2014,07,26,09,23,15.40
2014,07,26,09,24,15.40
2014,07,26,09,25,15.40
2014,07,26,09,26,15.30
2014,07,26,09,27,15.30
2014,07,26,09,28,15.30
2014,07,26,09,29,15.30
2014,07,26,09,30,15.20
2014,07,26,09,31,15.20
2014,07,26,09,32,15.20
2014,07,26,09,33,15.30
2014,07,26,09,34,15.20
2014,07,26,09,35,15.20
2014,07,26,09,36,15.30
2014,07,26,09,37,15.30
2014,07,26,09,38,15.30
2014,07,26,09,39,15.20
2014,07,26,09,40,15.20
2014,07,26,09,41,15.20
2014,07,26,09,42,15.20
2014,07,26,09,43,15.20
2014,07,26,09,44,15.20
2014,07,26,09,45,15.20
2014,07,26,09,46,15.20
2014,07,26,09,47,15.20
2014,07,26,09,48,15.20
2014,07,26,09,49,15.20
2014,07,26,09,50,15.30
2014,07,26,09,51,15.30
2014,07,26,09,52,15.50
2014,07,26,09,53,15.60
2014,07,26,09,54,15.60
2014,07,26,09,55,15.70
2014,07,26,09,56,15.80
2014,07,26,09,57,15.80
2014,07,26,09,58,15.80
2014,07,26,09,59,15.90
2014,07,26,10,00,15.90
2014,07,26,10,01,16.00
2014,07,26,10,02,16.10
2014,07,26,10,03,16.10
2014,07,26,10,04,16.10
2014,07,26,10,05,16.10
2014,07,26,10,06,16.10
2014,07,26,10,07,16.10
2014,07,26,10,08,16.20
2014,07,26,10,09,16.20
2014,07,26,10,10,16.30
2014,07,26,10,11,16.30
2014,07,26,10,12,16.40
2014,07,26,10,13,16.40
2014,07,26,10,14,16.40
2014,07,26,10,15,16.40
2014,07,26,10,16,16.40
2014,07,26,10,17,16.40
2014,07,26,10,18,16.40
2014,07,26,10,19,16.40
2014,07,26,10,20,16.40
2014,07,26,10,21,16.40
2014,07,26,10,22,16.40
2014,07,26,10,23,16.40
2014,07,26,10,24,16.60
2014,07,26,10,25,16.60
2014,07,26,10,26,16.70
2014,07,26,10,27,16.70
2014,07,26,10,28,16.70
2014,07,26,10,29,16.70
2014,07,26,10,30,16.70
2014,07,26,10,31,16.70
2014,07,26,10,32,16.70
2014,07,26,10,33,16.80
2014,07,26,10,34,16.80
2014,07,26,10,35,16.80
2014,07,26,10,36,16.80
2014,07,26,10,37,16.90
2014,07,26,10,38,16.90
2014,07,26,10,39,16.90
2014,07,26,10,40,16.90
2014,07,26,10,41,16.90
2014,07,26,10,42,16.90
2014,07,26,10,43,16.90
2014,07,26,10,44,16.80
2014,07,26,10,45,16.70
2014,07,26,10,46,16.70
2014,07,26,10,47,16.60
2014,07,26,10,48,16.50
2014,07,26,10,49,16.40
2014,07,26,10,50,16.40
2014,07,26,10,51,16.40
2014,07,26,10,52,16.40
2014,07,26,10,53,16.40
2014,07,26,10,54,16.50
2014,07,26,10,55,16.60
2014,07,26,10,56,16.60
2014,07,26,10,57,16.70
2014,07,26,10,58,16.60
2014,07,26,10,59,16.50
2014,07,26,11,00,16.40
2014,07,26,11,01,16.40
2014,07,26,11,02,16.50
2014,07,26,11,03,16.60
2014,07,26,11,04,16.60
2014,07,26,11,05,16.70
2014,07,26,11,06,16.70
2014,07,26,11,07,16.70
2014,07,26,11,08,16.80
2014,07,26,11,09,16.80
2014,07,26,11,10,16.80
2014,07,26,11,11,16.70
2014,07,26,11,12,16.70
2014,07,26,11,13,16.70
2014,07,26,11,14,16.70
2014,07,26,11,15,16.60
2014,07,26,11,16,16.60
2014,07,26,11,17,16.70
2014,07,26,11,18,16.70
2014,07,26,11,19,16.70
2014,07,26,11,20,16.60
2014,07,26,11,21,16.60
2014,07,26,11,22,16.50
2014,07,26,11,23,16.40
2014,07,26,11,24,16.40
2014,07,26,11,25,16.40
2014,07,26,11,26,16.40
2014,07,26,11,27,16.40
2014,07,26,11,28,16.40
2014,07,26,11,29,16.40
2014,07,26,11,30,16.50
2014,07,26,11,31,16.60
2014,07,26,11,32,16.60
2014,07,26,11,33,16.60
2014,07,26,11,34,16.70
2014,07,26,11,35,16.70
2014,07,26,11,36,16.70
2014,07,26,11,37,16.70
2014,07,26,11,38,16.70
2014,07,26,11,39,16.70
2014,07,26,11,40,16.70
2014,07,26,11,41,16.70
2014,07,26,11,42,16.70
2014,07,26,11,43,16.70
2014,07,26,11,44,16.70
2014,07,26,11,45,16.70
2014,07,26,11,46,16.80
2014,07,26,11,47,16.80
2014,07,26,11,48,16.80
2014,07,26,11,49,16.90
2014,07,26,11,50,16.90
2014,07,26,11,51,16.90
2014,07,26,11,52,16.90
2014,07,26,11,53,17.00
2014,07,26,11,54,17.20
2014,07,26,11,55,17.30
2014,07,26,11,56,17.30
2014,07,26,11,57,17.30
2014,07,26,11,58,17.30
2014,07,26,11,59,17.30
2014,07,26,12,00,17.30
2014,07,26,12,01,17.30
2014,07,26,12,02,17.20
2014,07,26,12,03,17.10
2014,07,26,12,04,17.00
2014,07,26,12,05,17.00
2014,07,26,12,06,16.90
2014,07,26,12,07,16.90
2014,07,26,12,08,16.90
2014,07,26,12,09,16.90
2014,07,26,12,10,16.80
2014,07,26,12,11,16.80
2014,07,26,12,12,16.80
2014,07,26,12,13,16.70
2014,07,26,12,14,16.70
2014,07,26,12,15,16.70
2014,07,26,12,16,16.70
2014,07,26,12,17,16.80
2014,07,26,12,18,16.90
2014,07,26,12,19,17.00
2014,07,26,12,20,17.10
2014,07,26,12,21,17.20
2014,07,26,12,22,17.30
2014,07,26,12,23,17.40
2014,07,26,12,24,17.40
2014,07,26,12,25,17.50
2014,07,26,12,26,17.50
2014,07,26,12,27,17.50
2014,07,26,12,28,17.50
2014,07,26,12,29,17.50
2014,07,26,12,30,17.50
2014,07,26,12,31,17.50
2014,07,26,12,32,17.50
2014,07,26,12,33,17.50
2014,07,26,12,34,17.50
2014,07,26,12,35,17.50
2014,07,26,12,36,17.60
2014,07,26,12,37,17.60
2014,07,26,12,38,17.60
2014,07,26,12,39,17.70
2014,07,26,12,40,17.80
2014,07,26,12,41,17.90
2014,07,26,12,42,17.90
2014,07,26,12,43,18.00
2014,07,26,12,44,18.10
2014,07,26,12,45,18.20
2014,07,26,12,46,18.20
2014,07,26,12,47,18.20
2014,07,26,12,48,18.30
2014,07,26,12,49,18.40
2014,07,26,12,50,18.50
2014,07,26,12,51,18.50
2014,07,26,12,52,18.60
2014,07,26,12,53,18.70
2014,07,26,12,54,18.80
2014,07,26,12,55,18.90
2014,07,26,12,56,19.00
2014,07,26,12,57,19.20
2014,07,26,12,58,19.30
2014,07,26,12,59,19.50
2014,07,26,13,00,19.60
2014,07,26,13,01,19.60
2014,07,26,13,02,19.60
2014,07,26,13,03,19.50
2014,07,26,13,04,19.40
2014,07,26,13,05,19.40
2014,07,26,13,06,19.30
2014,07,26,13,07,19.20
2014,07,26,13,08,19.10
2014,07,26,13,09,19.10
2014,07,26,13,10,19.10
2014,07,26,13,11,19.10
2014,07,26,13,12,19.10
2014,07,26,13,13,19.10
2014,07,26,13,14,19.20
2014,07,26,13,15,19.30
2014,07,26,13,16,19.30
2014,07,26,13,17,19.40
2014,07,26,13,18,19.50
2014,07,26,13,19,19.60
2014,07,26,13,20,19.70
2014,07,26,13,21,19.80
2014,07,26,13,22,19.90
2014,07,26,13,23,19.90
2014,07,26,13,24,20.10
2014,07,26,13,25,20.10
2014,07,26,13,26,20.10
2014,07,26,13,27,20.10
2014,07,26,13,28,20.20
2014,07,26,13,29,20.20
2014,07,26,13,30,20.20
2014,07,26,13,31,20.30
2014,07,26,13,32,20.30
2014,07,26,13,33,20.40
2014,07,26,13,34,20.50
2014,07,26,13,35,20.60
2014,07,26,13,36,20.70
2014,07,26,13,37,20.80
2014,07,26,13,38,21.00
2014,07,26,13,39,21.10
2014,07,26,13,40,21.30
2014,07,26,13,41,21.30
2014,07,26,13,42,21.40
2014,07,26,13,43,21.40
2014,07,26,13,44,21.40
2014,07,26,13,45,21.40
2014,07,26,13,46,21.40
2014,07,26,13,47,21.40
2014,07,26,13,48,21.40
2014,07,26,13,49,21.40
2014,07,26,13,50,21.40
2014,07,26,13,51,21.40
2014,07,26,13,52,21.40
2014,07,26,13,53,21.50
2014,07,26,13,54,21.60
2014,07,26,13,55,21.80
2014,07,26,13,56,21.90
2014,07,26,13,57,22.00
2014,07,26,13,58,22.10
2014,07,26,13,59,22.30
2014,07,26,14,00,22.40
2014,07,26,14,01,22.60
2014,07,26,14,02,22.60
2014,07,26,14,03,22.60
2014,07,26,14,04,22.50
2014,07,26,14,05,22.30
2014,07,26,14,06,22.20
2014,07,26,14,07,22.30
2014,07,26,14,08,22.40
2014,07,26,14,09,22.60
2014,07,26,14,10,22.70
2014,07,26,14,11,22.90
2014,07,26,14,12,23.00
2014,07,26,14,13,23.20
2014,07,26,14,14,23.30
2014,07,26,14,15,23.30
2014,07,26,14,16,23.30
2014,07,26,14,17,23.30
2014,07,26,14,18,23.30
2014,07,26,14,19,23.30
2014,07,26,14,20,23.30
2014,07,26,14,21,23.30
2014,07,26,14,22,23.20
2014,07,26,14,23,23.20
2014,07,26,14,24,23.30
2014,07,26,14,25,23.30
2014,07,26,14,26,23.30
2014,07,26,14,27,23.30
2014,07,26,14,28,23.30
2014,07,26,14,29,23.30
2014,07,26,14,30,23.40
2014,07,26,14,31,23.40
2014,07,26,14,32,23.40
2014,07,26,14,33,23.60
2014,07,26,14,34,23.60
2014,07,26,14,35,23.60
2014,07,26,14,36,23.60
2014,07,26,14,37,23.50
2014,07,26,14,38,23.50
2014,07,26,14,39,23.60
2014,07,26,14,40,23.50
2014,07,26,14,41,23.20
2014,07,26,14,42,23.00
2014,07,26,14,43,22.80
2014,07,26,14,44,22.80
2014,07,26,14,45,22.70
2014,07,26,14,46,22.80
2014,07,26,14,47,22.90
2014,07,26,14,48,22.90
2014,07,26,14,49,23.00
2014,07,26,14,50,23.10
2014,07,26,14,51,23.00
2014,07,26,14,52,22.90
2014,07,26,14,53,23.10
2014,07,26,14,54,23.20
2014,07,26,14,55,23.20
2014,07,26,14,56,23.40
2014,07,26,14,57,23.50
2014,07,26,14,58,23.60
2014,07,26,14,59,23.70
2014,07,26,15,00,23.70
2014,07,26,15,01,23.70
2014,07,26,15,02,23.70
2014,07,26,15,03,23.70
2014,07,26,15,04,23.80
2014,07,26,15,05,23.80
2014,07,26,15,06,23.80
2014,07,26,15,07,23.90
2014,07,26,15,08,23.90
2014,07,26,15,09,23.80
2014,07,26,15,10,23.70
2014,07,26,15,11,23.70
2014,07,26,15,12,23.70
2014,07,26,15,13,23.70
2014,07,26,15,14,23.70
2014,07,26,15,15,23.70
2014,07,26,15,16,23.60
2014,07,26,15,17,23.50
2014,07,26,15,18,23.40
2014,07,26,15,19,23.40
2014,07,26,15,20,23.30
2014,07,26,15,21,23.20
2014,07,26,15,22,23.00
2014,07,26,15,23,22.90
2014,07,26,15,24,22.90
2014,07,26,15,25,22.80
2014,07,26,15,26,22.90
2014,07,26,15,27,22.90
2014,07,26,15,28,23.10
2014,07,26,15,29,23.20
2014,07,26,15,30,23.30
2014,07,26,15,31,23.30
2014,07,26,15,32,23.30
2014,07,26,15,33,23.30
2014,07,26,15,34,23.20
2014,07,26,15,35,23.20
2014,07,26,15,36,23.30
2014,07,26,15,37,23.30
2014,07,26,15,38,23.40
2014,07,26,15,39,23.60
2014,07,26,15,40,23.40
2014,07,26,15,41,23.40
2014,07,26,15,42,23.40
2014,07,26,15,43,23.40
2014,07,26,15,44,23.50
2014,07,26,15,45,23.60
2014,07,26,15,46,23.70
2014,07,26,15,47,23.80
2014,07,26,15,48,23.70
2014,07,26,15,49,23.60
2014,07,26,15,50,23.50
2014,07,26,15,51,23.40
2014,07,26,15,52,23.40
2014,07,26,15,53,23.40
2014,07,26,15,54,23.40
2014,07,26,15,55,23.50
2014,07,26,15,56,23.60
2014,07,26,15,57,23.70
2014,07,26,15,58,23.70
2014,07,26,15,59,23.70
2014,07,26,16,00,23.70
2014,07,26,16,01,23.50
2014,07,26,16,02,23.20
2014,07,26,16,03,23.00
2014,07,26,16,04,22.80
2014,07,26,16,05,22.60
2014,07,26,16,06,22.50
2014,07,26,16,07,22.30
2014,07,26,16,08,22.20
2014,07,26,16,09,22.00
2014,07,26,16,10,21.90
2014,07,26,16,11,21.60
2014,07,26,16,12,21.40
2014,07,26,16,13,21.30
2014,07,26,16,14,21.10
2014,07,26,16,15,21.10
2014,07,26,16,16,21.10
2014,07,26,16,17,21.20
2014,07,26,16,18,21.10
2014,07,26,16,19,21.00
2014,07,26,16,20,20.90
2014,07,26,16,21,20.70
2014,07,26,16,22,20.60
2014,07,26,16,23,20.60
2014,07,26,16,24,20.60
2014,07,26,16,25,20.50
2014,07,26,16,26,20.60
2014,07,26,16,27,20.60
2014,07,26,16,28,20.70
2014,07,26,16,29,20.80
2014,07,26,16,30,21.00
2014,07,26,16,31,21.10
2014,07,26,16,32,21.10
2014,07,26,16,33,21.20
2014,07,26,16,34,21.30
2014,07,26,16,35,21.30
2014,07,26,16,36,21.40
2014,07,26,16,37,21.60
2014,07,26,16,38,21.60
2014,07,26,16,39,21.60
2014,07,26,16,40,21.70
2014,07,26,16,41,21.90
2014,07,26,16,42,22.00
2014,07,26,16,43,22.00
2014,07,26,16,44,22.00
2014,07,26,16,45,21.90
2014,07,26,16,46,21.90
2014,07,26,16,47,21.90
2014,07,26,16,48,22.00
2014,07,26,16,49,22.20
2014,07,26,16,50,22.30
2014,07,26,16,51,22.50
2014,07,26,16,52,22.60
2014,07,26,16,53,22.70
2014,07,26,16,54,22.90
2014,07,26,16,55,23.00
2014,07,26,16,56,23.10
2014,07,26,16,57,23.30
2014,07,26,16,58,23.40
2014,07,26,16,59,23.50
2014,07,26,17,00,23.70
2014,07,26,17,01,23.70
2014,07,26,17,02,23.70
2014,07,26,17,03,23.70
2014,07,26,17,04,23.70
2014,07,26,17,05,23.70
2014,07,26,17,06,23.70
2014,07,26,17,07,23.70
2014,07,26,17,08,23.60
2014,07,26,17,09,23.50
2014,07,26,17,10,23.40
2014,07,26,17,11,23.40
2014,07,26,17,12,23.40
2014,07,26,17,13,23.30
2014,07,26,17,14,23.30
2014,07,26,17,15,23.40
2014,07,26,17,16,23.60
2014,07,26,17,17,23.70
2014,07,26,17,18,23.70
2014,07,26,17,19,23.80